Probability
0 0 0 0 0 0 0 0 0 0 0 0 0 0 0 0 0 0 0 0 0 0 0 0 0 0 0 0 0 0 0 0 0 0 0 0 0 0
0 0 0 0 0 0 0 0 0 0 0 0 0 0 0 0 0 0 0 0 0 0 0 0 0 0 0 0 0 0 0 0 0 0 0 0 0 0
0 0 0 0 0 0 0 0 0 0 0 0 0 0 0 0 0 0 0 0 0 0 0 0 0 0 0 0 0 0 0 0 0 0 0 0 0 0
0 0 0 0 0 0 0 0 0 0 0 0 0 0 0 0 0 0 0 0 0 0 0 0 0 0 0 0 0 0 0 0 0 0 0 0 0 0
0 0 0 0 0 0 0 0 0 0 0 0 0 0 0 0 0 0 0 0 0 0 0 0 0 0 0 0 0 0 0 0 0 0 0 0 0 0
0 0 0 0 0 0 0 0 0 0 0 0 0 0 0 0 0 0 0 0 0 0 0 0 0 0 0 0 0 0 0 0 0 0 0 0 0 0
0 0 0 0 0 0 0 0 0 0 0 0 0 0 0 0 0 0 0 0 0 0 0 0 0 0 0 0 0 0 0 0 0 0 0 0 0 0
0 0 0 0 0 0 0 0 0 0 0 0 0 0 0 0 0 0 0 0 0 0 0 0 0 0 0 0 0 0 0 0 0 0 0 0 0 0
0 0 0 0 0 0 0 0 0 0 0 0 0 0 0 0 0 0 0 0 0 0 0 0 0 0 0 0 0 0 0 0 0 0 0 0 0 0
0 0 0 0 0 0 0 0 0 0 0 0 0 0 0 0 0 0 0 0 0 0 0 0 0 0 0 0 0 0 0 0 0 0 0 0 0 0
0 0 0 0 0 0 0 0 0 0 0 0 0 0 0 0 0 0 0 0 0 0 0 0 0 0 0 0 0 0 0 0 0 0 0 0 0 0
0 0 0 0 0 0 0 0 0 0 0 0 0 0 0 0 0 0 0 0 0 0 0 0 0 0 0 0 0 0 0 0 0 0 0 0 0 0
0 0 0 0 0 0 0 0 0 0 0 0 0 0 0 0 0 0 0 0 0 0 0 0 0 0 0 0 0 0 0 0 0 0 0 0 0 0
0 0 0 0 0 0 0 0 0 0 0 0 0 0 0 0 0 0 0 0 0 0 0 0 0 0 0 0 0 0 0 0 0 0 0 0 0 0
0 0 0 0 0 0 0 0 0 0 0 0 0 0 0 0 0 0 0 0 0 0 0 0 0 0 0 0 0 0 0 0 0 0 0 0 0 0
0 0 0 0 0 0 0 0 0 0 0 0 0 0 0 0 0 0 0 0 0 0 0 0 0 0 0 0 0 0 0 0 0 0 0 0 0 0
0 0 0 0 0 0 0 0 0 0 0 0 0 0 0 0 0 0 0 0 0 0 0 0 0 0 0 0 0 0 0 0 0 0 0 0 0 0
0 0 0 0 0 0 0 0 0 0 0 0 0 0 0 0 0 0 0 0 0 0 0 0 0 0 0 0 0 0 0 0 0 0 0 0 0 0
0 0 0 0 0 0 0 0 0 0 0 0 0 0 0 0 0 0 0 0 0 0 0 0 0 0 0 0 0 0 0 0 0 0 0 0 0 0
0 0 0 0 0 0 0 0 0 0 0 0 0 0 0 0 0 0 0 0 0 0 0 0 0 0 0 0 0 0 0 0 0 0 0 0 0 0
0 0 0 0 0 0 0 0 0 0 0 0 0 0 0 0 0 0 0 0 0 0 0 0 0 0 0 0 0 0 0 0 0 0 0 0 0 0
0 0 0 0 0 0 0 0 0 0 0 0 0 0 0 0 0 0 0 0 0 0 0 0 0 0 0 0 0 0 0 0 0 0 0 0 0 0
0 0 0 0 0 0 0 0 0 0 0 0 0 0 0 0 0 0 0 0 0 0 0 0 0 0 0 0 0 0 0 0 0 0 0 0 0 0
Height
5718 5718 5718 5719 5719 5719 5718 5718 5717 5717 5719 5719 5718 5717 5716 5716 5715 5714 5713 5712 5712 5710 5709 5708 5706 5704 5702 5700 5697 5694 5691 5688 5685 5682 5679 5676 5673 5671
5705 5705 5705 5705 5705 5705 5705 5704 5703 5703 5703 5705 5704 5703 5702 5701 5701 5700 5700 5699 5699 5698 5697 5696 5695 5693 5691 5688 5686 5683 5681 5678 5675 5672 5669 5667 5664 5662
5692 5691 5692 5691 5690 5691 5690 5690 5689 5688 5688 5689 5689 5688 5688 5688 5688 5688 5687 5687 5687 5686 5685 5684 5682 5680 5679 5677 5675 5673 5670 5668 5665 5662 5659 5657 5655 5653
5678 5677 5677 5677 5676 5676 5676 5675 5675 5675 5674 5674 5674 5674 5674 5674 5675 5674 5675 5674 5674 5673 5673 5671 5670 5668 5667 5666 5664 5662 5660 5657 5655 5652 5650 5648 5646 5644
5665 5664 5663 5662 5662 5661 5661 5661 5660 5660 5659 5659 5660 5660 5660 5660 5661 5662 5662 5662 5661 5661 5660 5659 5658 5657 5656 5654 5652 5651 5649 5647 5645 5642 5640 5638 5636 5635
5651 5650 5649 5648 5647 5647 5646 5646 5646 5645 5645 5645 5646 5646 5646 5647 5648 5649 5649 5649 5648 5648 5648 5647 5646 5645 5644 5643 5641 5640 5638 5636 5634 5632 5630 5628 5627 5625
5637 5636 5635 5634 5633 5632 5632 5632 5632 5631 5631 5631 5632 5632 5633 5634 5635 5635 5636 5636 5636 5636 5635 5635 5634 5633 5632 5631 5630 5629 5627 5625 5624 5622 5620 5619 5617 5616
5623 5622 5621 5620 5619 5618 5618 5618 5617 5617 5618 5618 5619 5620 5621 5622 5622 5622 5623 5623 5624 5624 5623 5623 5623 5622 5621 5621 5619 5618 5616 5615 5613 5612 5610 5609 5608 5607
5608 5607 5606 5605 5605 5604 5604 5604 5603 5603 5604 5606 5606 5607 5608 5609 5610 5610 5610 5611 5611 5612 5612 5612 5611 5611 5610 5610 5608 5607 5606 5605 5603 5602 5601 5600 5599 5598
5595 5593 5593 5592 5591 5591 5590 5590 5590 5591 5592 5593 5594 5595 5595 5596 5597 5598 5598 5598 5599 5599 5600 5600 5600 5600 5599 5598 5597 5596 5595 5594 5593 5592 5591 5590 5589 5589
5581 5580 5579 5579 5578 5577 5577 5577 5577 5578 5578 5579 5580 5581 5582 5583 5584 5585 5585 5586 5587 5587 5588 5588 5588 5588 5588 5587 5586 5586 5585 5584 5583 5582 5581 5581 5580 5579
5568 5567 5566 5565 5565 5563 5563 5562 5563 5565 5566 5567 5568 5568 5569 5570 5571 5572 5573 5574 5575 5576 5576 5577 5577 5577 5577 5576 5576 5575 5575 5574 5573 5573 5572 5571 5570 5570
5554 5553 5552 5552 5551 5550 5549 5549 5550 5551 5552 5554 5555 5556 5557 5558 5559 5560 5561 5563 5564 5565 5565 5566 5566 5566 5566 5565 5565 5565 5564 5564 5563 5563 5562 5561 5561 5561
5540 5539 5539 5538 5537 5536 5536 5537 5537 5539 5540 5542 5543 5544 5545 5547 5548 5549 5550 5551 5552 5553 5554 5555 5555 5555 5555 5554 5554 5554 5554 5554 5553 5552 5552 5551 5551 5551
5526 5526 5525 5524 5524 5524 5524 5525 5526 5527 5529 5531 5532 5533 5534 5535 5536 5538 5539 5540 5541 5542 5543 5543 5544 5544 5544 5544 5544 5543 5543 5543 5543 5542 5542 5541 5541 5541
5513 5512 5512 5512 5512 5512 5513 5514 5515 5517 5518 5520 5521 5522 5523 5525 5526 5528 5529 5529 5531 5531 5532 5532 5533 5533 5533 5533 5533 5533 5532 5532 5532 5532 5532 5531 5531 5531
5499 5499 5499 5500 5500 5501 5502 5504 5505 5506 5508 5510 5511 5512 5513 5514 5516 5517 5518 5519 5520 5520 5521 5521 5522 5522 5522 5522 5522 5522 5522 5522 5522 5521 5521 5521 5521 5521
5485 5486 5487 5487 5489 5490 5491 5493 5495 5496 5498 5500 5501 5502 5504 5505 5506 5507 5508 5509 5509 5510 5510 5510 5511 5511 5512 5512 5512 5511 5511 5511 5511 5511 5511 5511 5510 5510
5473 5474 5475 5477 5478 5480 5481 5483 5485 5486 5488 5490 5491 5492 5494 5494 5495 5496 5497 5498 5499 5499 5500 5500 5500 5501 5501 5501 5501 5501 5501 5500 5500 5500 5500 5500 5500 5499
5462 5463 5465 5466 5468 5470 5471 5473 5475 5477 5478 5480 5481 5482 5484 5484 5485 5486 5487 5488 5488 5489 5489 5490 5490 5490 5490 5490 5490 5490 5489 5489 5489 5489 5489 5489 5489 5488
5453 5454 5455 5456 5458 5460 5461 5463 5465 5467 5468 5470 5471 5473 5474 5475 5475 5476 5477 5478 5478 5479 5479 5479 5479 5479 5479 5479 5479 5478 5478 5478 5478 5478 5478 5478 5478 5477
5444 5445 5446 5447 5449 5450 5452 5454 5455 5457 5459 5460 5461 5463 5464 5465 5466 5466 5467 5468 5468 5468 5469 5469 5468 5468 5468 5468 5468 5467 5467 5466 5466 5466 5466 5466 5466 5466
5436 5437 5437 5439 5440 5442 5443 5445 5446 5448 5449 5451 5452 5453 5454 5455 5456 5456 5457 5457 5458 5458 5458 5458 5457 5457 5457 5457 5456 5456 5456 5455 5454 5454 5454 5454 5454 5454
Wind_Speed
49 50 50 51 51 51 51 52 52 52 50 50 50 50 50 50 50 50 50 49 48 48 48 48 48 47 47 47 47 47 47 46 45 45 43 41 39 37
50 52 52 52 52 53 53 53 53 53 51 50 51 52 52 51 50 50 49 48 48 48 48 47 47 46 47 47 47 47 46 45 44 43 42 40 38 36
50 52 52 52 53 53 54 54 53 53 53 52 52 52 51 51 50 49 47 47 48 48 47 47 47 46 46 47 46 46 45 44 44 43 41 39 37 36
47 48 49 51 53 53 52 52 52 51 52 52 51 51 52 52 51 49 47 47 47 48 48 48 47 45 45 45 45 44 43 43 43 42 41 39 37 35
46 47 48 51 51 50 51 51 51 52 53 52 51 52 53 53 50 47 46 46 47 47 47 46 44 44 44 45 44 43 42 42 42 41 40 37 36 35
46 47 48 50 51 51 51 51 52 53 53 52 52 51 50 51 49 49 47 46 47 48 47 46 44 44 43 43 42 42 42 42 42 41 39 37 35 34
47 48 48 49 50 50 50 51 52 52 52 51 49 49 48 48 50 50 48 47 46 46 45 45 43 42 42 42 42 42 42 42 41 39 38 36 35 34
46 47 47 47 47 48 49 50 50 50 49 48 47 48 47 47 48 49 48 47 46 45 44 43 43 42 42 42 41 41 40 40 39 37 36 35 34 33
47 47 47 46 47 47 47 47 48 47 47 46 47 47 47 47 48 48 48 47 45 44 44 43 43 42 42 41 40 40 39 39 38 37 35 34 33 32
46 47 46 45 45 45 45 46 45 45 45 46 45 46 47 48 47 47 47 47 45 44 43 42 43 42 41 41 39 39 39 38 37 36 35 34 33 32
44 44 44 44 44 45 45 46 46 45 45 46 46 46 46 47 47 46 45 45 44 43 43 42 41 41 41 40 38 38 38 37 37 36 35 34 33 32
44 44 44 43 43 44 44 44 44 44 44 44 45 44 44 45 44 44 44 44 43 42 41 40 40 40 39 39 38 38 38 38 37 37 36 34 33 32
44 44 44 44 44 44 43 42 42 42 42 43 42 43 43 44 43 43 43 43 41 40 40 40 40 39 39 39 39 39 38 38 37 36 35 33 32 31
43 42 43 43 43 43 42 40 41 41 42 42 42 42 42 43 43 42 42 42 41 40 40 40 39 39 40 39 39 39 38 37 36 35 34 33 32 31
42 42 42 42 41 41 40 40 40 40 40 40 40 40 41 42 42 41 41 41 40 39 39 38 38 39 39 39 38 38 37 36 35 35 34 33 33 32
43 42 42 41 40 40 40 39 40 40 40 40 40 39 40 40 40 40 39 39 39 39 38 39 38 39 38 38 38 37 36 35 35 34 33 33 33 33
42 42 41 40 40 40 39 39 39 40 39 39 39 38 38 38 38 38 38 38 38 38 38 38 38 37 37 37 36 36 35 35 34 34 33 33 33 32
41 39 39 38 37 37 37 37 38 38 38 37 37 37 37 37 37 37 37 37 37 37 36 36 36 36 36 36 35 35 35 34 34 33 33 33 33 32
38 37 36 36 36 35 35 34 35 36 36 36 35 36 36 36 36 36 36 36 36 35 35 35 35 35 35 35 35 35 35 34 34 34 33 33 33 33
35 34 33 33 33 33 34 34 34 34 35 35 35 35 35 35 35 34 34 34 34 34 34 34 34 34 34 34 35 35 35 35 34 34 34 34 34 34
32 32 32 33 33 32 32 33 34 34 34 34 34 34 34 33 34 33 33 33 33 33 33 34 34 34 34 34 34 35 35 34 34 34 34 34 34 34
29 30 31 31 31 31 32 32 33 33 33 33 33 33 32 33 33 33 32 32 32 32 33 33 34 34 34 34 34 34 35 35 35 35 35 35 35 34
27 28 28 29 29 30 31 31 31 31 31 32 32 32 32 32 32 32 32 32 32 33 33 33 34 34 34 34 33 34 34 34 34 34 35 35 35 35
Wind_Direction
261 262 262 264 265 267 269 270 272 273 273 272 271 273 273 274 274 275 275 277 276 277 277 278 280 281 282 284 286 288 290 292 295 296 298 298 297 295
262 263 264 264 265 267 269 271 273 274 274 273 273 273 273 272 273 274 274 275 275 275 277 278 279 279 281 284 285 287 290 292 294 296 298 297 295 293
266 266 265 266 266 267 269 270 271 273 274 274 273 272 272 272 273 274 274 275 274 275 275 276 277 279 281 283 285 288 289 291 293 295 295 295 293 291
266 266 266 265 265 267 269 270 271 272 272 273 273 271 270 270 271 273 272 273 273 274 274 276 278 279 281 283 285 286 288 291 292 294 294 293 292 289
266 267 267 267 267 268 269 270 270 271 271 270 271 272 270 268 268 269 271 272 273 273 275 278 279 280 281 282 285 286 288 290 292 293 292 291 290 287
269 269 269 268 269 269 270 269 270 270 269 269 270 271 268 265 265 267 269 271 273 273 275 276 278 278 281 282 284 286 289 290 291 291 291 289 288 285
270 271 270 269 270 270 269 269 270 270 269 268 268 268 267 265 265 266 268 270 272 273 273 274 276 278 280 281 282 285 288 289 290 290 288 287 286 284
270 270 270 270 270 271 270 269 269 268 267 266 266 266 265 265 266 267 267 269 271 272 271 272 275 277 279 281 283 285 287 287 287 287 286 284 283 282
270 270 271 270 270 271 270 269 268 267 265 264 264 263 264 264 266 268 268 269 270 272 271 273 275 278 280 282 283 284 284 285 285 285 284 283 281 281
271 270 269 270 270 270 270 269 268 265 263 263 263 263 263 263 265 268 268 268 269 271 271 273 274 277 279 280 281 282 283 284 284 283 282 281 280 280
270 269 269 270 269 268 268 268 266 262 260 261 262 262 263 262 265 267 267 266 268 271 271 272 274 276 278 279 280 281 282 283 283 282 281 280 279 278
269 269 268 268 267 267 267 266 263 260 261 261 261 262 262 261 264 265 266 265 267 269 270 272 274 275 276 277 279 280 281 282 282 281 280 279 278 276
268 267 267 266 267 266 265 263 261 260 260 260 261 262 262 261 262 264 265 265 268 269 270 272 273 274 275 277 278 279 279 280 280 280 278 277 276 275
267 267 266 266 266 264 263 262 261 260 259 260 261 262 262 262 263 265 265 265 267 270 271 272 272 273 274 276 277 278 278 279 279 278 277 275 274 274
269 268 267 266 265 264 261 260 260 260 260 260 262 263 263 263 264 265 266 266 268 270 271 271 271 272 273 275 275 276 277 277 277 276 275 274 274 274
269 269 268 267 265 263 260 258 259 259 260 261 262 263 262 262 263 264 266 267 268 269 270 271 271 272 273 275 275 275 275 275 275 274 274 274 273 272
268 268 268 267 266 264 262 260 260 260 260 260 261 262 262 263 264 264 266 267 268 269 270 270 271 272 274 274 274 274 274 274 274 273 273 273 273 272
269 268 267 266 265 263 261 260 260 260 261 261 262 263 263 264 265 265 266 266 268 269 270 270 271 272 273 274 274 274 274 274 273 273 273 273 272 270
268 266 266 266 263 262 261 258 258 259 260 261 262 262 262 264 265 266 266 266 267 268 269 270 271 272 273 273 274 273 273 273 274 273 272 272 271 270
268 265 263 264 262 260 259 258 258 259 260 261 262 263 264 265 265 265 265 265 266 267 269 270 271 272 272 273 273 273 273 273 273 272 271 271 271 271
267 265 263 262 261 259 259 259 259 260 261 261 262 263 264 265 265 264 264 265 266 267 269 270 271 272 273 273 274 274 273 273 272 272 271 271 271 271
269 266 264 263 261 258 259 260 259 260 261 261 261 262 264 264 264 264 264 265 266 268 269 270 272 273 273 273 273 273 273 273 272 272 271 271 271 270
269 268 266 262 260 259 260 261 262 261 261 261 263 264 265 265 265 265 265 266 268 269 271 273 274 274 274 273 273 273 273 273 273 272 272 271 271 270